FDX79 PANC-VHHH

Flight info

Callsign FDX79
Flight time N/A
Altitude 30000
Route TURNA8 TED DCT 61N160W DCT ORVIL DCT EXAMY DCT 47N170E/N0499F320 39N160E 34N150E/N0494F340 29N140E DCT CANAI V75 NHC V91 MJC G581 TULTO/N0489F360 G581 ELATO V522 ABBEY
Aircraft B77L/H-SDE1E2E3FGHIJ2J3J4J5M1RWXY/LB1D1

Departure

Time 2026-05-03 23:58
Airport Ted Stevens Anchorage International Airport (PANC)

Arrival

Time N/A
Airport Hong Kong International Airport (VHHH)
Time Latitude Longitude Altitude Speed Heading
2026-05-03 23:26 61.18932 -150.00244 127 ft 0 kts 255°
2026-05-03 23:47 61.18936 -150.00217 127 ft 4 kts 255°
2026-05-03 23:47 61.18943 -150.00163 125 ft 4 kts 255°
2026-05-03 23:47 61.18950 -150.00116 119 ft 4 kts 236°
2026-05-03 23:47 61.18967 -150.00092 125 ft 4 kts 173°
2026-05-03 23:48 61.18991 -150.00104 122 ft 2 kts 165°
2026-05-03 23:48 61.18996 -150.00107 123 ft 0 kts 165°
2026-05-03 23:51 61.18996 -150.00106 123 ft 1 kts 165°
2026-05-03 23:51 61.18959 -150.00087 120 ft 8 kts 166°
2026-05-03 23:51 61.18891 -150.00049 118 ft 13 kts 165°
2026-05-03 23:52 61.18805 -150.00001 137 ft 9 kts 166°
2026-05-03 23:52 61.18727 -150.00068 118 ft 17 kts 244°
2026-05-03 23:52 61.18694 -150.00288 127 ft 17 kts 251°
2026-05-03 23:52 61.18566 -150.00313 127 ft 25 kts 164°
2026-05-03 23:53 61.18421 -150.00234 128 ft 20 kts 165°
2026-05-03 23:53 61.18291 -150.00162 129 ft 17 kts 165°
2026-05-03 23:53 61.18182 -150.00101 117 ft 14 kts 165°
2026-05-03 23:53 61.18087 -150.00048 146 ft 14 kts 165°
2026-05-03 23:54 61.17992 -149.99996 143 ft 14 kts 165°
2026-05-03 23:54 61.17900 -149.99943 139 ft 14 kts 165°
2026-05-03 23:54 61.17808 -149.99892 138 ft 14 kts 165°
2026-05-03 23:54 61.17714 -149.99839 144 ft 14 kts 165°
2026-05-03 23:55 61.17622 -149.99787 140 ft 14 kts 165°
2026-05-03 23:55 61.17529 -149.99735 141 ft 14 kts 165°
2026-05-03 23:55 61.17436 -149.99683 144 ft 14 kts 165°
2026-05-03 23:55 61.17342 -149.99632 142 ft 14 kts 165°
2026-05-03 23:56 61.17252 -149.99581 144 ft 13 kts 165°
2026-05-03 23:56 61.17165 -149.99536 141 ft 13 kts 179°
2026-05-03 23:56 61.17124 -149.99686 127 ft 13 kts 270°
2026-05-03 23:56 61.17132 -149.99837 130 ft 10 kts 303°
2026-05-03 23:57 61.17190 -149.99896 142 ft 3 kts 343°
2026-05-03 23:57 61.17296 -149.99957 146 ft 49 kts 345°
2026-05-03 23:57 61.17890 -150.00290 125 ft 127 kts 345°
2026-05-03 23:58 61.18975 -150.00899 132 ft 194 kts 345°
2026-05-03 23:58 61.20356 -150.01592 584 ft 203 kts 348°
2026-05-03 23:58 61.21666 -150.02566 1320 ft 202 kts 325°
2026-05-03 23:58 61.22738 -150.04495 1957 ft 207 kts 320°
2026-05-03 23:59 61.23817 -150.06655 2195 ft 227 kts 315°
2026-05-03 23:59 61.24925 -150.09146 2548 ft 241 kts 314°
2026-05-03 23:59 61.26030 -150.11830 3044 ft 248 kts 303°
2026-05-03 23:59 61.26518 -150.15288 3529 ft 257 kts 272°
2026-05-04 00:00 61.26501 -150.19093 3952 ft 269 kts 269°
2026-05-04 00:00 61.26479 -150.23051 4493 ft 278 kts 269°
2026-05-04 00:00 61.26469 -150.27104 5141 ft 282 kts 269°
2026-05-04 00:00 61.26467 -150.31204 5815 ft 285 kts 268°
2026-05-04 00:01 61.26473 -150.35344 6473 ft 288 kts 267°
2026-05-04 00:01 61.26485 -150.39530 7098 ft 291 kts 267°
2026-05-04 00:01 61.26502 -150.43739 7791 ft 291 kts 267°
2026-05-04 00:01 61.26524 -150.47950 8482 ft 292 kts 268°
2026-05-04 00:02 61.26560 -150.52177 9154 ft 293 kts 268°
2026-05-04 00:02 61.26599 -150.56422 9822 ft 294 kts 268°
2026-05-04 00:02 61.26635 -150.60693 10355 ft 299 kts 267°
2026-05-04 00:02 61.26666 -150.65157 10518 ft 319 kts 267°
2026-05-04 00:03 61.26695 -150.69906 10711 ft 338 kts 267°
2026-05-04 00:03 61.26723 -150.74942 10921 ft 357 kts 267°
2026-05-04 00:03 61.26751 -150.80155 11427 ft 365 kts 267°
2026-05-04 00:03 61.26780 -150.85456 12103 ft 368 kts 267°
2026-05-04 00:04 61.26807 -150.90774 12915 ft 368 kts 266°
2026-05-04 00:04 61.26830 -150.96117 13645 ft 371 kts 266°
2026-05-04 00:04 61.26851 -151.01499 14357 ft 373 kts 266°
2026-05-04 00:04 61.26870 -151.06881 15161 ft 371 kts 265°
2026-05-04 00:05 61.26887 -151.12165 15977 ft 368 kts 265°
2026-05-04 00:05 61.26902 -151.17474 16721 ft 368 kts 264°
2026-05-04 00:05 61.26913 -151.22799 17417 ft 368 kts 264°
2026-05-04 00:05 61.26921 -151.28123 18101 ft 369 kts 264°
2026-05-04 00:06 61.26927 -151.33444 18740 ft 369 kts 264°
2026-05-04 00:06 61.26931 -151.38799 19278 ft 370 kts 263°
2026-05-04 00:06 61.26931 -151.44179 19762 ft 373 kts 263°
2026-05-04 00:06 61.26930 -151.49595 20243 ft 376 kts 263°
2026-05-04 00:07 61.26927 -151.55050 20741 ft 378 kts 263°
2026-05-04 00:07 61.26922 -151.60534 21232 ft 381 kts 263°
2026-05-04 00:07 61.26916 -151.66059 21720 ft 383 kts 263°
2026-05-04 00:07 61.26907 -151.71611 22282 ft 385 kts 263°
2026-05-04 00:08 61.26895 -151.77117 22807 ft 387 kts 263°
2026-05-04 00:08 61.26882 -151.82748 23342 ft 389 kts 263°
2026-05-04 00:08 61.26866 -151.88389 23847 ft 391 kts 263°
2026-05-04 00:08 61.26848 -151.94057 24262 ft 393 kts 262°
2026-05-04 00:09 61.26827 -151.99751 24660 ft 395 kts 262°
2026-05-04 00:09 61.26804 -152.05471 25031 ft 397 kts 262°
2026-05-04 00:09 61.26777 -152.11230 25429 ft 399 kts 262°
2026-05-04 00:09 61.26749 -152.17024 25790 ft 401 kts 262°
2026-05-04 00:10 61.26717 -152.22845 26206 ft 403 kts 262°
2026-05-04 00:10 61.26682 -152.28667 26598 ft 404 kts 262°
2026-05-04 00:10 61.26656 -152.34536 26963 ft 408 kts 261°
2026-05-04 00:10 61.26614 -152.40452 27344 ft 410 kts 261°
2026-05-04 00:11 61.26568 -152.46314 27766 ft 412 kts 261°
2026-05-04 00:11 61.26521 -152.52268 28264 ft 412 kts 261°
2026-05-04 00:11 61.26473 -152.58224 28642 ft 413 kts 260°
2026-05-04 00:11 61.26423 -152.64209 28913 ft 417 kts 260°
2026-05-04 00:12 61.26363 -152.70275 29124 ft 421 kts 260°
2026-05-04 00:12 61.26306 -152.76380 29423 ft 423 kts 260°
2026-05-04 00:12 61.26250 -152.82507 29788 ft 424 kts 260°
2026-05-04 00:12 61.26190 -152.88643 30060 ft 426 kts 259°
2026-05-04 00:13 61.26056 -153.01030 30146 ft 427 kts 260°
2026-05-04 00:13 61.25916 -153.13387 30147 ft 426 kts 259°
2026-05-04 00:14 61.25753 -153.25579 30126 ft 424 kts 259°
2026-05-04 00:14 61.25594 -153.37831 30166 ft 424 kts 259°
2026-05-04 00:15 61.25415 -153.50065 30128 ft 424 kts 258°
2026-05-04 00:15 61.25230 -153.62305 30122 ft 424 kts 258°
2026-05-04 00:16 61.25029 -153.74563 30114 ft 425 kts 258°
2026-05-04 00:16 61.24818 -153.86824 30114 ft 424 kts 258°
2026-05-04 00:17 61.24596 -153.99057 30109 ft 424 kts 258°
2026-05-04 00:17 61.24366 -154.11214 30143 ft 424 kts 258°
2026-05-04 00:18 61.24121 -154.23470 30107 ft 424 kts 257°
2026-05-04 00:18 61.23866 -154.35707 30100 ft 425 kts 257°
2026-05-04 00:19 61.23602 -154.47963 30098 ft 425 kts 257°
2026-05-04 00:19 61.23321 -154.60250 30087 ft 426 kts 257°
2026-05-04 00:20 61.23032 -154.72539 30095 ft 426 kts 257°
2026-05-04 00:20 61.22731 -154.84837 30097 ft 425 kts 257°
2026-05-04 00:21 61.22425 -154.97018 30103 ft 425 kts 257°
2026-05-04 00:21 61.22105 -155.09226 30105 ft 423 kts 257°
2026-05-04 00:22 61.21775 -155.21383 30104 ft 421 kts 257°
2026-05-04 00:22 61.21436 -155.33504 30113 ft 420 kts 256°
2026-05-04 00:23 61.21083 -155.45605 30107 ft 420 kts 256°
2026-05-04 00:23 61.20720 -155.57709 30103 ft 421 kts 256°
2026-05-04 00:24 61.20348 -155.69787 30166 ft 423 kts 256°
2026-05-04 00:24 61.19960 -155.82013 30114 ft 425 kts 256°
2026-05-04 00:25 61.19562 -155.94249 30112 ft 425 kts 256°
2026-05-04 00:25 61.19155 -156.06484 30104 ft 425 kts 256°
2026-05-04 00:26 61.18733 -156.18732 30099 ft 425 kts 256°
2026-05-04 00:26 61.18304 -156.30914 30092 ft 423 kts 256°
2026-05-04 00:27 61.17868 -156.43005 30092 ft 422 kts 255°
2026-05-04 00:27 61.17415 -156.55166 30098 ft 424 kts 255°
2026-05-04 00:28 61.16950 -156.67359 30109 ft 424 kts 255°
2026-05-04 00:28 61.16475 -156.79547 30098 ft 424 kts 255°
2026-05-04 00:29 61.15989 -156.91744 30096 ft 425 kts 255°
2026-05-04 00:29 61.15493 -157.03940 30108 ft 425 kts 255°
2026-05-04 00:30 61.14986 -157.16110 30093 ft 426 kts 255°
2026-05-04 00:30 61.14465 -157.28346 30119 ft 429 kts 255°
2026-05-04 00:31 61.13926 -157.40700 30113 ft 431 kts 255°